Regional Weather Roundup
Issued by NWS

Home | Current Version | Previous Version | Graphics & Text | Print | Product List | Glossary On
Versions: 1 2 3 4 5 6 7 8 9 10 11 12 13 14 15 16 17 18 19 20 21 22 23 24 25 26 27 28 29 30 31 32 33 34 35 36 37 38 39 40 41 42 43 44 45 46 47 48 49 50
000
ASUS43 KOAX 261902
RWRNE

WEATHER ROUNDUP FOR NEBRASKA
NATIONAL WEATHER SERVICE OMAHA NE
200 PM CDT TUE MAY 26 2015

NOTES: SATELLITE DATA IS BEING USED TO AUGMENT CLOUD COVER ABOVE
       12000 FEET.
       "FAIR" INDICATES FEW OR NO CLOUDS BELOW 12,000 FEET WITH NO
       SIGNIFICANT WEATHER AND/OR OBSTRUCTIONS TO VISIBILITY.

  * THESE STATIONS DO NOT REPORT WEATHER SUCH AS RAIN...SNOW OR FOG.

NEZ001>004-019>022-054>056-262000-
NEBRASKA PANHANDLE

CITY           SKY/WX    TMP DP  RH WIND       PRES   REMARKS
SCOTTSBLUFF    PTSUNNY   67  52  58 SE9       30.01S
ALLIANCE       PTSUNNY   63  48  58 VRB7      30.02F
CHADRON        MOSUNNY   66  49  54 VRB5      30.00F
SIDNEY         PTSUNNY   64  51  62 E6        30.03F
$$

NEZ057>060-069>072-079>082-262000-
SOUTHWEST NEBRASKA

CITY           SKY/WX    TMP DP  RH WIND       PRES   REMARKS
NORTH PLATTE   PTSUNNY   68  48  48 N10       29.99S
IMPERIAL       PTSUNNY   66  52  60 N5        30.01S
LEXINGTON      PTSUNNY   65  53  64 N12       29.97S
MCCOOK         PTSUNNY   70  50  49 NW14G20   29.98S
$$

NEZ005>010-023>029-035>040-094-262000-
NORTH CENTRAL NEBRASKA

CITY           SKY/WX    TMP DP  RH WIND       PRES   REMARKS
VALENTINE      PTSUNNY   69  48  47 N7        29.97S
AINSWORTH      PTSUNNY   67  49  52 NE12G18   29.97S
BROKEN BOW     CLOUDY    66  47  50 N8        29.95S
ORD            PTSUNNY   68  49  50 N17G26    29.91S
$$

NEZ041-046>049-061>064-073>077-083>087-262000-
SOUTH CENTRAL NEBRASKA

CITY           SKY/WX    TMP DP  RH WIND       PRES   REMARKS
GRAND ISLAND   CLOUDY    61  51  70 NW15      29.93R
HASTINGS       CLOUDY    63  51  65 NW18      29.93R
KEARNEY *      CLOUDY    64  50  59 NW15      29.94F
$$

NEZ011>018-030>034-042>045-262000-
NORTHEAST NEBRASKA

CITY           SKY/WX    TMP DP  RH WIND       PRES   REMARKS
NORFOLK        CLOUDY    62  55  77 NW13      29.87S
BLAIR          CLOUDY    65  58  79 W12G21    29.82R
COLUMBUS *       N/A    N/A N/A N/A MISG        N/A
FREMONT        CLOUDY    64  59  85 NW12      29.85S
TEKAMAH        CLOUDY    66  60  81 NW17      29.82R
$$

NEZ050>053-065>068-078-088>093-262000-
SOUTHEAST NEBRASKA

CITY           SKY/WX    TMP DP  RH WIND       PRES   REMARKS
LINCOLN        CLOUDY    68  59  73 NW13      29.85S
OMAHA EPPLEY   LGT RAIN  66  63  90 S6        29.81S
FALLS CITY     PTSUNNY   74  62  66 SW16      29.81S
PLATTSMOUTH    CLOUDY    67  58  70 W9        29.83R
$$

NEZ044-045-051>053-067-262000-
OMAHA AREA

CITY           SKY/WX    TMP DP  RH WIND       PRES   REMARKS
OMAHA EPPLEY   LGT RAIN  66  63  90 S6        29.81S
BLAIR          CLOUDY    65  58  79 W12G21    29.82R
FREMONT        CLOUDY    64  59  85 NW12      29.85S
OFFUTT AFB     PTSUNNY   69  60  71 W8        29.80F
PLATTSMOUTH    CLOUDY    67  58  70 W9        29.83R
$$


USA.gov is the U.S. government's official web portal to all federal, state and local government web resources and services.